This is the latest recevied weather packets stored in our database for station/object OE8NDR-11. If no packets are shown the sender has not sent any weather packets the latest 10 day(s).
| Time | Temp. | Humidity | Pressure | Rain* | Wind** | Luminosity | Snow |
|---|---|---|---|---|---|---|---|
| 1777564705 | 13.33° C | 56% | 1019.4 hPa | 0 mm | - | - | - |
| 1777564405 | 13.89° C | 57% | 1019.3 hPa | 0 mm | - | - | - |
| 1777564105 | 13.33° C | 58% | 1019.3 hPa | 0 mm | - | - | - |
| 1777563805 | 13.33° C | 58% | 1019.3 hPa | 0 mm | - | - | - |
| 1777563505 | 13.33° C | 58% | 1019.3 hPa | 0 mm | - | - | - |
| 1777563205 | 13.33° C | 58% | 1019.3 hPa | 0 mm | - | - | - |
| 1777562905 | 13.33° C | 60% | 1019.4 hPa | 0 mm | - | - | - |
| 1777562605 | 13.33° C | 60% | 1019.3 hPa | 0 mm | - | - | - |
| 1777562305 | 12.78° C | 59% | 1019.2 hPa | 0 mm | - | - | - |
| 1777562005 | 12.78° C | 60% | 1019.1 hPa | 0 mm | - | - | - |
| 1777561705 | 12.78° C | 60% | 1019.1 hPa | 0 mm | - | - | - |
| 1777561405 | 12.78° C | 59% | 1019.1 hPa | 0 mm | - | - | - |
| 1777561105 | 12.78° C | 59% | 1019 hPa | 0 mm | - | - | - |
| 1777560805 | 12.78° C | 61% | 1019 hPa | 0 mm | - | - | - |
| 1777560505 | 12.78° C | 62% | 1019.1 hPa | 0 mm | - | - | - |
| 1777560205 | 12.78° C | 61% | 1018.9 hPa | 0 mm | - | - | - |
| 1777559905 | 12.78° C | 62% | 1019 hPa | 0 mm | - | - | - |
| 1777559605 | 12.78° C | 62% | 1018.9 hPa | 0 mm | - | - | - |
| 1777559305 | 12.78° C | 62% | 1018.8 hPa | 0 mm | - | - | - |
| 1777559005 | 12.78° C | 63% | 1019.1 hPa | 0 mm | - | - | - |
| 1777558705 | 12.22° C | 63% | 1018.9 hPa | 0 mm | - | - | - |
| 1777558405 | 12.22° C | 63% | 1018.9 hPa | 0 mm | - | - | - |
| 1777558105 | 12.78° C | 64% | 1019 hPa | 0 mm | - | - | - |
| 1777557805 | 12.22° C | 65% | 1019.1 hPa | 0 mm | - | - | - |
| 1777557505 | 12.22° C | 64% | 1019 hPa | 0 mm | - | - | - |
* Rain latest hour (hover to see other rain measurements)
** Current wind speed in m/s (hover to see current wind gust speed)